www.pogodaiklimat.ru

Погода и климат >> Архив погоды >> Россия >> Калининградская область >> Пионерский


ПОГОДА в Пионерском

  • Прогноз погоды в Пионерском
  • Монитор погоды в Пионерском

АРХИВ ПОГОДЫ в Пионерском

Время (UTC), дата Ветер
(напр.,м/с)
 
Видим.   Явления Облачность Т
(С)
Тd
(С)
f
(%)
Тe
(С)
Тes
(С)
Комфортность P
(гПа)
Po
(гПа)
Тmin
(С)
Tmax
(С)
R
(мм)
R24
(мм)
S
(см)
09 17.04 СВ 2-3
{4}
10 км ясно +13.1 +1.8 46 +13 +23 1030.8 1027.3
12 17.04 С 2-4
{4}
10 км ясно +11.7 +1.5 50 +11 +22 опасность
простуды
1030.7 1027.2
15 17.04 С 3-7
{8}
10 км ясно +9.1 +2.6 64 +7 +10 1030.2 1026.7
18 17.04 С 2-4
{7}
10 км ясно +8.0 +2.2 67 +6 +6 1030.8 1027.3 +13.7
21 17.04 штиль 0-1
{4}
10 км ясно +5.5 +2.7 82 +5 +5 1031.7 1028.1
00 18.04 ЮВ 1-1
{1}
10 км ясно +4.6 +2.6 87 +3 +3 1032.3 1028.7
03 18.04 В 1-2
{2}
10 км ясно +6.3 +1.6 72 +5 +5 1032.8 1029.2 +3.8
06 18.04 СВ 1-2
{2}
10 км ясно +9.8 +3.3 64 +10 +13 1033.8 1030.3 +3.8
09 18.04 С 1-2
{2}
10 км ясно +12.0 +2.2 51 +12 +24 опасность
простуды
1034.9 1031.4
12 18.04 С 2-4
{5}
10 км ясно +11.2 +0.6 48 +10 +21 опасность
простуды
1034.8 1031.3
15 18.04 С 2-5
{5}
10 км ясно +9.0 +2.7 65 +8 +11 1034.2 1030.7
18 18.04 СЗ 1-2
{5}
10 км ясно +6.1 +2.8 79 +5 +5 1034.1 1030.5 +12.5
21 18.04 С 2-3
{4}
10 км ясно +7.5 +1.5 66 +6 +6 1034.2 1030.6
00 19.04 С 1-1
{3}
10 км ясно +5.4 +2.2 80 +4 +4 1034.8 1031.2
03 19.04 СВ 1-1
{1}
10 км ясно +3.9 +2.5 91 +2 +2 1034.7 1031.1 +3.8
06 19.04 С 1-3
{3}
10 км ясно +8.1 +3.2 71 +8 +11 1035.7 1032.1 +3.8
09 19.04 С 2-3
{3}
10 км ясно +10.2 +1.2 54 +9 +20 опасность
простуды
1036.1 1032.6
12 19.04 СЗ 2-4
{4}
10 км ясно +11.0 -1.3 42 +10 +21 опасность
простуды
1035.6 1032.1
15 19.04 СЗ 2-4
{5}
10 км ясно +9.4 +1.4 57 +8 +12 1034.5 1031.0
18 19.04 СЗ 1-4
{4}
10 км ясно +6.0 +2.0 75 +5 +5 1033.7 1030.1 +11.8
21 19.04 СЗ 1-2
{5}
10 км ясно +6.0 +2.8 80 +5 +5 1033.1 1029.5
00 20.04 С 1-1
{3}
10 км 4/0
[Ci fib]
+5.7 +3.0 83 +5 +5 1032.6 1029.0
03 20.04 С 1-2
{2}
10 км 4/0
[Ci fib]
+6.3 +2.6 77 +5 +5 1032.2 1028.6 +5.2
06 20.04 СЗ 1-3
{3}
10 км 6/0
[Ci fib]
+8.8 +2.5 65 +8 +12 1032.1 1028.6 +5.1
09 20.04 С 2-4
{5}
10 км ясно +9.1 +3.0 66 +8 +18 опасность
простуды
1032.1 1028.6
12 20.04 СЗ 2-3
{4}
10 км 4/0
[Ci fib]
+11.1 -0.4 45 +10 +21 опасность
простуды
1031.4 1027.9
15 20.04 СЗ 2-5
{5}
10 км 8/0
[Ci fib]
+9.5 +1.6 58 +8 +11 1029.9 1026.4
18 20.04 СЗ 2-5
{6}
10 км 8/4 600 м
[Sc Ci fib]
+6.7 +3.0 77 +5 +5 1029.1 1025.5 +11.5
21 20.04 З 2-3
{5}
10 км 9/9 600 м
[Sc]
+6.8 +3.9 82 +5 +5 1028.4 1024.8
00 21.04 СЗ 1-4
{5}
10 км 9/9 600 м
[Sc]
+6.0 +2.3 77 +5 +5 1026.8 1023.2
03 21.04 З 1-2
{4}
10 км 9/9 600 м
[Sc]
+6.0 +2.9 80 +5 +5 1025.3 1021.7 +3.9
06 21.04 ЮЗ 2-4
{4}
10 км 9/9 600 м
[Sc]
+6.8 +2.6 75 +5 +5 1023.8 1020.3 +3.9
09 21.04 С 2-3
{4}
10 км 8/8 600 м
[Sc]
+9.8 +1.1 55 +9 +11 1022.8 1019.3
12 21.04 С 2-3
{5}
10 км 6/3 600 м
[Sc Ci fib]
+10.7 +2.3 56 +10 +17 1022.3 1018.8
15 21.04 С 3-4
{5}
10 км ясно +9.4 +3.3 66 +7 +11 1022.0 1018.5
18 21.04 С 2-4
{5}
10 км ясно +7.1 +3.1 76 +5 +5 1022.3 1018.8 +12.8
21 21.04 В 1-3
{4}
10 км ясно +6.7 +3.2 78 +6 +6 1023.0 1019.5
00 22.04 С 1-1
{4}
10 км ясно +5.3 +3.6 89 +4 +4 1023.5 1019.9
03 22.04 В 2-3
{4}
10 км ясно +4.7 +3.7 93 +2 +2 1023.9 1020.3 +4.3
06 22.04 В 2-5
{5}
4000 м дымка ясно +8.3 +5.5 83 +6 +10 1025.2 1021.7 +4.3
09 22.04 В 3-7
{7}
10 км ясно +14.3 +4.7 52 +14 +23 1025.5 1022.1
12 22.04 ЮВ 4-8
{9}
10 км ясно +18.6 +1.3 31 +19 +26 1024.9 1021.5
15 22.04 ЮВ 3-7
{10}
10 км 6/6 600 м
[Sc]
+18.6 +1.2 31 +19 +20 1024.7 1021.3
18 22.04 В 2-3
{10}
10 км 4/4 600 м
[Sc]
+14.7 +0.3 37 +15 +15 1025.3 1021.9 +19.5
21 22.04 ЮВ 2-3
{3}
10 км 3/3 600 м
[Sc]
+11.7 +0.2 45 +11 +11 1026.5 1023.0
00 23.04 ЮВ 2-3
{4}
10 км ясно +8.8 -2.1 46 +8 +8 1026.7 1023.2
03 23.04 В 2-4
{4}
10 км ясно +6.3 -2.6 53 +5 +5 1027.2 1023.6 +5.9
06 23.04 В 2-5
{5}
10 км ясно +12.8 -3.0 33 +12 +16 1027.3 1023.8 +5.5
09 23.04 ЮВ 5-10
{11}
10 км ясно +18.4 -6.8 17 +18 +24 1026.5 1023.1
12 23.04 В 5-12
{13}
10 км ясно +19.6 -7.2 16 +19 +25 1024.5 1021.1
15 23.04 В 6-12
{17}
10 км ясно +19.7 -7.6 15 +19 +21 1022.2 1018.8
18 23.04 В 4-7
{11}
10 км ясно +16.7 -7.0 19 +16 +16 1021.8 1018.4 +20.2
21 23.04 В 3-5
{7}
10 км ясно +12.7 -5.4 28 +12 +12 1021.9 1018.4
00 24.04 В 2-4
{6}
10 км ясно +9.7 -4.8 36 +9 +9 1021.4 1017.9
03 24.04 В 2-5
{5}
10 км ясно +8.2 -4.1 42 +7 +7 1020.8 1017.3 +7.9
06 24.04 В 5-10
{11}
10 км ясно +14.2 -3.9 28 +13 +15 1020.2 1016.8 +7.9

 

Местоположение метеостанции Пионерский (Калининградская область, Россия): широта 54.95 долгота 20.21 высота над уровнем моря 28 м.

В архиве по умолчанию представлена погода в Пионерском за последнюю неделю. Архивные данные за месяц целиком и за предыдущие месяцы, начиная с января 2011 года, Вы можете получить, выбрав интересующий диапазон дат из раскрывающегося списка и нажав кнопку "Ввод!".


*Определитесь, кто Вы:
робот инопланетянин человек

Внимание! Время в таблицах - всемирное. Для получения местного времени необходимо прибавить поправку, которая равна 2 ч.

Смотрите также архив погоды в соседних городах и на ближайших метеорологических станциях:

Погода в Рыбном Порту (Калининградская область, Россия) (32 км)
Погода в Калининграде (Калининградская область, Россия) (38 км)
Погода в Балтийске (Калининградская область, Россия) (40 км)
Погода в Рыбачем (Калининградская область, Россия) (46 км)
Погода в Мамоново (Калининградская область, Россия) (56 км)
Погода в Ниде (Литва) (66 км)
Погода в Шилуте (Литва) (91 км)
Погода в Железнодорожном (Калининградская область, Россия) (95 км)
Погода в Хеле (Польша) (97 км)
Погода в Эльблонге (Польша) (100 км)

Пояснения к столбцам:

Ветер - указаны скорость ветра в м/с - средняя за 10 мин, порывы в срок и между сроками (в фигурных скобках) и направление, откуда дует ветер: С - северный, СВ - северо-восточный, В - восточный, ЮВ - юго-восточный, Ю - южный, ЮЗ - юго-западный, З - западный, СЗ - северо-западный.
Видимость - горизонтальная дальность видимости в метрах или километрах. При видимости от 1 до 10 км при отсутствии осадков обычно наблюдается дымка, при ухудшении видимости до 1 км и менее - туман. В сухую погоду видимость может ухудшаться дымом, пылью или мглою.
Явления - указаны атмосферные явления, наблюдавшиеся в срок или в последний час перед сроком; фигурными скобками обозначены явления, наблюдавшиеся между сроками (за 1-3 часа до срока); квадратными скобками обозначены град или гололедные отложения с указанием их диаметра в мм.
Облачность - указаны через наклонную черту общая и нижняя облачность в баллах и высота нижней границы облаков в метрах; квадратными скобками обозначены формы облаков: Ci - перистые, Cs - перисто-слоистые, Cc - перисто-кучевые, Ac - высококучевые, As - высокослоистые, Sc - слоисто-кучевые, Ns - слоисто-дождевые, Cu - кучевые, Cb - кучево-дождевые. Подробнее классификацию облаков см. в Атласе облаков (PDF).
T - Температура воздуха - температура, измеренная на высоте 2 м над землей.
Td - Температура точки росы - температура, при понижении до которой содержащийся в воздухе водяной пар достигнет насыщения.
f - Относительная влажность воздуха - влажноcть воздуха, измеренная на высоте 2 м над землей.
Te - Эффективная температура - температура, которую ощущает одетый по сезону человек в тени. Характеристика душности погоды. При расчете учитывается влияние влажности воздуха и скорости ветра на теплоощущения человека.
Tes - Эффективная температура на солнце - температура, которую ощущает человек, с поправкой на солнечный нагрев. Характеристика знойности погоды. Зависит от высоты солнца над горизонтом, облачности и скорости ветра. Ночью, в пасмурную погоду, а также при ветре 12 м/с и более поправка равна нулю.
P - Атмосферное давление - приведенное к уровню моря атмосферное давление.
Po - Атмосферное давление - измеренное на уровне метеостанции атмосферное давление.
Tmin - Минимальная температура - минимум температуры воздуха на высоте 2 м над землей.
Tmax - Максимальная температура - максимум температуры воздуха на высоте 2 м над землей.
R - Количество осадков - Количество выпавших осадков за период времени, мм. При наведении курсора мыши на число - период времени, за который выпало указанное количество осадков.
R24 - Количество осадков - Количество выпавших осадков за 24 часа, мм.
S - Снежный покров - Высота снежного покрова, см. При наведении курсора мыши на число - состояние снежного покрова и степень покрытия местности в баллах.